Showing default

RASSVET-3 10, 68369

Orbit data source: Space-Track

RASSVET-3 10, 68369 is a payload satellite owned by Byuro 1440 (CIS) in LEO that was launched on Mon, 23 Mar 2026 UTC via a SOYUZ-2-1B launch vehicle from the Plesetsk Missile And Space Complex (PKMTR). Payload-class satellites include a variety of spacecraft equipped with specific instruments for various scientific and technological missions. These include communications satellites like Starlink; space stations such as the ISS; scientific satellites like the Hubble; Earth observation satellites from companies like Planet Labs, Umbra, and HawkEye 360; GPS; miniature CubeSats for education and research; and military/defense satellites.

Loading next visibility...
Identifier
68369, 2026-061K
Orbit
LEO
Country
Flag of CISCIS
Related business
Manufacturer
Byuro 1440
Mission
Operational spacecraft
Bus & Motor
RASSVET-2, Unknown motor
Mass
~370 kg wet, ~370 kg dry
Launch date (UTC)
2026-03-23 (3 months ago)
Launch vehicle
SOYUZ-2-1B
Launch site
Plesetsk Missile And Space Complex (PKMTR)
Object type
Payload
Rocket body
Debris
Shape & HBR
Unknown shape, 14.5 m
Radar Cross Section
Large (>1 m²)

Expand to show TLE details & history
Last TLE update: 5 hours ago

TLE from 5 hours ago
0 RASSVET-3 10
1 68369U 26061K   26169.82469573  .00203129  15290-4  42280-3 0  9992
2 68369  82.2902   9.5962 0008983 137.6714 222.5257 15.98948630 13861
Epoch: 2026-06-18T19:47Z
TLE epoch observation values (Epoch: 2026-06-18T19:47:33.711Z)
Latitude
-0.00005°
Longitude
165.64325°
Altitude
284.932 km
Speed
7.734 km/s
True Right ascension
00h 38m 23s
True Declination
0° 00' 00"
Sunlit
Object was in daylight at epoch
Visualization orbit readout
Latitude
Unknown
Longitude
Unknown
Altitude
Unknown
Speed
Unknown
Apparent Right ascension
Unknown
Apparent Declination
Unknown
Sunlit
N/A
Visualization observer readout
Local Sidereal Time
12:05:47
Azimuth
Unknown
Elevation
Unknown
Doppler factor
Unknown
Orbital elements
Apogee altitude
280.186 km
Perigee altitude
268.234 km
Semi-major axis
6,652.347 km
Eccentricity
0.0009
Inclination
82.2902°
RAAN
9.5962°
Arg. of periapsis
137.6714°
True anomaly
222.45618°
Mean anomaly
222.5257°
Eccentric anomaly
222.49093°
Mean motion
4.00019 °/min
Orbital period
90 mins
BSTAR
0.0004228
Loading maneuver chart data...
Computing Atmospheric mass density...
Loading historical data...
Loading historical data...
Loading historical data...
Loading historical data...
Loading historical data...
Loading historical data...
Loading historical data...

Documentation

Showing up to 5 results
|